Alexander City, AL

9:18 AM CDT on April 23, 2018 (GMT -0500)
Russell

Weather History for KALX - February, 2014

Change the Weather History Date:

Thursday, February 27, 2014

  Actual Average (KAUO) Record (KAUO)
Temperature  
Mean Temperature 42 °F -  
Max Temperature 55 °F 61 °F 81 °F (1977)
Min Temperature 30 °F 34 °F 14 °F (1963)
Degree Days  
Heating Degree Days 22    
Moisture  
Dew Point 7 °F    
Average Humidity 33    
Maximum Humidity 75    
Minimum Humidity 9    
Precipitation  
Precipitation 0.00 in - - ()
Sea Level Pressure  
Sea Level Pressure 30.02 in    
Wind  
Wind Speed 6 mph (NNW)    
Max Wind Speed 13 mph    
Max Gust Speed 17 mph    
Visibility 10 miles    
Events      
Averages and records for this station are not official NWS values.
T = Trace of Precipitation, MM = Missing Value Source: NWS Daily Summary

Daily Weather History Graph

Daily Weather History Graph

Search for Another Location

Airport or City:

Astronomy

Feb. 27, 2014 Rise Set
Actual Time 6:14 AM CST 5:39 PM CST
Civil Twilight 5:49 AM CST 6:04 PM CST
Nautical Twilight 5:20 AM CST 6:32 PM CST
Astronomical Twilight 4:52 AM CST 7:01 PM CST
Moon 4:42 AM CST (2/27) 4:07 PM CST (2/27)
Length of Visible Light 12h 14m
Length of Day
11h 25m
Waning Crescent, 4% of the Moon is Illuminated
Feb 27
Waning Crescent
Mar 1
New
Mar 8
First Quarter
Mar 16
Full
Mar 23
Last Quarter

Hourly Weather History & Observations

Time (CST) Temp. Windchill Dew Point Humidity Pressure Visibility Wind Dir Wind Speed Gust Speed Precip Events Conditions
12:00 AM 35.1 °F 30.1 °F 12.0 °F 39% 29.98 in 10.0 mi NNW 5.8 mph - N/A   Clear
12:15 AM 35.1 °F 30.1 °F 12.7 °F 40% 29.98 in 10.0 mi NNW 5.8 mph - N/A   Clear
12:35 AM 35.1 °F 29.3 °F 14.2 °F 42% 29.99 in 10.0 mi NNW 6.9 mph - N/A   Clear
12:55 AM 35.1 °F 30.1 °F 12.7 °F 40% 29.99 in 10.0 mi NNW 5.8 mph - N/A   Clear
1:15 AM 35.1 °F 30.1 °F 13.6 °F 41% 29.99 in 10.0 mi NW 5.8 mph - N/A   Clear
1:35 AM 35.1 °F 31.0 °F 12.6 °F 40% 30.00 in 10.0 mi NW 4.6 mph - N/A   Clear
1:55 AM 35.1 °F 32.2 °F 11.8 °F 38% 29.99 in 10.0 mi North 3.5 mph - N/A   Clear
2:15 AM 34.3 °F 31.4 °F 10.6 °F 37% 30.01 in 10.0 mi NNW 3.5 mph - N/A   Clear
2:35 AM 32.5 °F 28.1 °F 8.8 °F 37% 30.00 in 10.0 mi NW 4.6 mph - N/A   Clear
2:55 AM 32.5 °F 25.5 °F 8.1 °F 36% 30.00 in 10.0 mi NNW 8.1 mph - N/A   Clear
3:15 AM 32.5 °F 25.5 °F 8.2 °F 36% 30.00 in 10.0 mi NNW 8.1 mph - N/A   Clear
3:35 AM 32.5 °F 24.2 °F 8.1 °F 36% 30.01 in 10.0 mi NNW 10.4 mph - N/A   Clear
3:55 AM 31.6 °F 25.1 °F 6.4 °F 35% 30.01 in 10.0 mi NNW 6.9 mph - N/A   Clear
4:15 AM 30.7 °F 24.1 °F 6.1 °F 35% 30.02 in 10.0 mi NNW 6.9 mph - N/A   Clear
4:35 AM 30.2 °F 23.4 °F 5.2 °F 35% 30.02 in 10.0 mi NNW 6.9 mph - N/A   Clear
4:55 AM 30.2 °F 24.3 °F 5.7 °F 36% 30.02 in 10.0 mi NNW 5.8 mph - N/A   Clear
5:15 AM 30.2 °F 25.4 °F 7.2 °F 38% 30.03 in 10.0 mi NNW 4.6 mph - N/A   Clear
5:35 AM 30.2 °F 26.7 °F 8.8 °F 41% 30.04 in 10.0 mi NNW 3.5 mph - N/A   Clear
5:55 AM 30.2 °F 25.4 °F 8.2 °F 40% 30.04 in 10.0 mi NW 4.6 mph - N/A   Clear
6:15 AM 30.2 °F 25.4 °F 10.6 °F 44% 30.04 in 10.0 mi NW 4.6 mph - N/A   Clear
6:35 AM 30.2 °F 26.7 °F 10.4 °F 44% 30.05 in 10.0 mi NNW 3.5 mph - N/A   Clear
6:55 AM 30.2 °F 25.4 °F 9.1 °F 41% 30.05 in 10.0 mi NNW 4.6 mph - N/A   Clear
7:15 AM 30.2 °F 23.4 °F 7.5 °F 39% 30.05 in 10.0 mi NNW 6.9 mph - N/A   Clear
7:35 AM 31.6 °F 23.7 °F 7.0 °F 35% 30.06 in 10.0 mi NNW 9.2 mph - N/A   Clear
7:55 AM 33.3 °F 25.7 °F 7.2 °F 34% 30.06 in 10.0 mi NNW 9.2 mph - N/A   Clear
8:15 AM 35.1 °F 26.9 °F 5.9 °F 30% 30.06 in 10.0 mi North 11.5 mph - N/A   Clear
8:35 AM 35.1 °F 26.9 °F 3.6 °F 27% 30.07 in 10.0 mi North 11.5 mph 16.1 mph N/A   Clear
8:55 AM 37.2 °F 30.6 °F 3.9 °F 25% 30.07 in 10.0 mi NNW 9.2 mph - N/A   Clear
9:15 AM 37.6 °F 31.0 °F 1.4 °F 22% 30.06 in 10.0 mi North 9.2 mph 17.3 mph N/A   Clear
9:35 AM 37.9 °F 30.5 °F -3.3 °F 17% 30.06 in 10.0 mi North 11.5 mph 17.3 mph N/A   Clear
9:55 AM 40.1 °F 34.7 °F -3.5 °F 16% 30.06 in 10.0 mi North 8.1 mph 16.1 mph N/A   Clear
10:15 AM 41.0 °F 35.2 °F -2.7 °F 16% 30.06 in 10.0 mi NNW 9.2 mph - N/A   Clear
10:35 AM 41.4 °F 35.2 °F -3.6 °F 15% 30.06 in 10.0 mi NW 10.4 mph - N/A   Clear
10:55 AM 42.4 °F 37.5 °F -2.4 °F 15% 30.06 in 10.0 mi NW 8.1 mph - N/A   Clear
11:15 AM 44.1 °F 40.1 °F -4.4 °F 13% 30.05 in 10.0 mi NW 6.9 mph - N/A   Clear
11:35 AM 44.1 °F 42.5 °F -5.1 °F 13% 30.04 in 10.0 mi NNW 3.5 mph - N/A   Clear
11:55 AM 47.5 °F - -3.5 °F 12% 30.04 in 10.0 mi NNW 9.2 mph - N/A   Clear
12:15 PM 49.1 °F - -1.7 °F 12% 30.03 in 10.0 mi NNW 9.2 mph - N/A   Clear
12:35 PM 50.2 °F - -1.3 °F 12% 30.02 in 10.0 mi WNW 3.5 mph - N/A   Clear
12:55 PM 50.2 °F - -4.4 °F 10% 30.01 in 10.0 mi NNW 4.6 mph - N/A   Clear
1:15 PM 50.2 °F - -4.0 °F 11% 30.01 in 10.0 mi NW 12.7 mph 16.1 mph N/A   Clear
1:35 PM 50.2 °F - -2.7 °F 11% 30.00 in 10.0 mi NW 12.7 mph - N/A   Clear
1:55 PM 51.3 °F - 0.1 °F 12% 30.00 in 10.0 mi NW 9.2 mph 17.3 mph N/A   Clear
2:15 PM 52.7 °F - -5.8 °F 9% 29.99 in 10.0 mi WNW 9.2 mph - N/A   Clear
2:35 PM 52.7 °F - -4.2 °F 10% 29.99 in 10.0 mi NW 8.1 mph 17.3 mph N/A   Clear
2:55 PM 52.7 °F - -4.4 °F 9% 29.98 in 10.0 mi WNW 11.5 mph 17.3 mph N/A   Clear
3:15 PM 52.9 °F - -6.2 °F 9% 29.98 in 10.0 mi NNW 4.6 mph - N/A   Clear
3:35 PM 55.2 °F - -3.3 °F 9% 29.98 in 10.0 mi WNW 5.8 mph - N/A   Clear
3:55 PM 54.3 °F - -4.9 °F 9% 29.97 in 10.0 mi NW 5.8 mph - N/A   Clear
4:15 PM 53.1 °F - -5.6 °F 9% 29.97 in 10.0 mi NW 5.8 mph - N/A   Clear
4:40 PM 52.9 °F - -2.0 °F 10% 29.98 in 10.0 mi North 6.9 mph - N/A   Clear
4:55 PM 52.3 °F - -1.3 °F 11% 29.99 in 10.0 mi NNW 9.2 mph - N/A   Clear
5:15 PM 50.2 °F - -2.0 °F 12% 30.00 in 10.0 mi NNW 8.1 mph - N/A   Clear
5:35 PM 50.2 °F - 1.0 °F 13% 30.00 in 10.0 mi NW 4.6 mph - N/A   Clear
5:55 PM 50.2 °F - 6.4 °F 17% 29.99 in 10.0 mi NW 4.6 mph - N/A   Clear
6:15 PM 47.7 °F - 5.9 °F 18% 29.99 in 10.0 mi NW 4.6 mph - N/A   Clear
6:35 PM 45.1 °F 43.7 °F 8.1 °F 22% 29.99 in 10.0 mi NW 3.5 mph - N/A   Clear
6:55 PM 40.8 °F - 17.4 °F 39% 29.99 in 10.0 mi Calm Calm - N/A   Clear
7:15 PM 40.1 °F - 17.2 °F 40% 29.99 in 10.0 mi Calm Calm - N/A   Clear
7:35 PM 37.6 °F - 19.8 °F 49% 30.00 in 10.0 mi Calm Calm - N/A   Clear
7:55 PM 35.1 °F - 20.3 °F 55% 30.01 in 10.0 mi Calm Calm - N/A   Clear
8:15 PM 35.1 °F - 22.5 °F 60% 30.02 in 10.0 mi Calm Calm - N/A   Clear
8:35 PM 35.1 °F - 23.4 °F 62% 30.03 in 10.0 mi Calm Calm - N/A   Clear
8:55 PM 35.1 °F - 22.3 °F 60% 30.03 in 10.0 mi Calm Calm - N/A   Clear
9:20 PM 35.1 °F - 23.4 °F 62% 30.04 in 10.0 mi Calm Calm - N/A   Clear
9:35 PM 33.6 °F - 22.8 °F 65% 30.04 in 10.0 mi Calm Calm - N/A   Clear
9:55 PM 32.5 °F - 22.5 °F 66% 30.04 in 10.0 mi Calm Calm - N/A   Clear
10:15 PM 32.5 °F - 23.0 °F 68% 30.04 in 10.0 mi Calm Calm - N/A   Clear
10:35 PM 32.4 °F - 23.0 °F 68% 30.04 in 10.0 mi Calm Calm - N/A   Clear
10:55 PM 30.4 °F - 22.3 °F 72% 30.04 in 10.0 mi Calm Calm - N/A   Clear
11:15 PM 30.2 °F - 23.0 °F 75% 30.04 in 10.0 mi Calm Calm - N/A   Clear
11:35 PM 30.2 °F - 22.6 °F 73% 30.04 in 10.0 mi Calm Calm - N/A   Clear
11:55 PM 30.2 °F - 23.0 °F 75% 30.04 in 10.0 mi Calm Calm - N/A   Clear